Hilton Head Island, SC

9:12 AM EST on December 11, 2017 (GMT -0500)
Hilton Head

Weather History for KHXD - October, 2012

Change the Weather History Date:

Wednesday, October 24, 2012

  Actual Average Record
Temperature  
Mean Temperature 72 °F -  
Max Temperature 77 °F 76 °F 83 °F (1953)
Min Temperature 66 °F 55 °F 33 °F (2008)
Cooling Degree Days 6    
Growing Degree Days 22 (Base 50)    
Moisture  
Dew Point 67 °F    
Average Humidity 91    
Maximum Humidity 100    
Minimum Humidity 61    
Precipitation  
Precipitation 0.00 in - - ()
Sea Level Pressure  
Sea Level Pressure 30.12 in    
Wind  
Wind Speed 5 mph (NNE)    
Max Wind Speed 10 mph    
Max Gust Speed -    
Visibility 10 miles    
Events      
Averages and records for this station are not official NWS values.
T = Trace of Precipitation, MM = Missing Value Source: NWS Daily Summary

Daily Weather History Graph

Daily Weather History Graph

Search for Another Location

Airport or City:

Trip Planner

Search our weather history database for the weather conditions in past years. The results will help you decide how hot, cold, wet, or windy it might be!

Date:

Astronomy

Oct. 24, 2012 Rise Set
Actual Time 7:33 AM EDT 6:39 PM EDT
Civil Twilight 7:08 AM EDT 7:04 PM EDT
Nautical Twilight 6:39 AM EDT 7:33 PM EDT
Astronomical Twilight 6:11 AM EDT 8:01 PM EDT
Moon 3:40 PM EDT (10/24) 2:43 AM EDT (10/24)
Length of Visible Light 11h 56m
Length of Day
11h 06m
Waxing Gibbous, 76% of the Moon is Illuminated
Oct 24
Waxing Gibbous
Oct 29
Full
Nov 6
Last Quarter
Nov 13
New
Nov 20
First Quarter

Hourly Weather History & Observations

Time (EDT) Temp. Dew Point Humidity Pressure Visibility Wind Dir Wind Speed Gust Speed Precip Events Conditions
12:15 AM 69.8 °F 66.2 °F 88% 30.15 in 10.0 mi NNE 3.5 mph - 0.00 in   Partly Cloudy
12:35 AM 68.0 °F 66.2 °F 94% 30.15 in 10.0 mi Calm Calm - 0.00 in   Clear
12:55 AM 66.2 °F 66.2 °F 100% 30.15 in 10.0 mi NNE 4.6 mph - 0.00 in   Clear
1:15 AM 68.0 °F 66.2 °F 94% 30.15 in 10.0 mi NNE 4.6 mph - 0.00 in   Clear
1:35 AM 66.2 °F 66.2 °F 100% 30.14 in 10.0 mi North 3.5 mph - 0.00 in   Clear
1:55 AM 66.2 °F 66.2 °F 100% 30.14 in 9.0 mi North - - 0.00 in   Clear
2:15 AM 66.2 °F 66.2 °F 100% 30.14 in 7.0 mi North 4.6 mph - 0.00 in   Clear
2:35 AM 66.2 °F 66.2 °F 100% 30.13 in 5.0 mi NNE 3.5 mph - 0.00 in   Clear
2:55 AM 66.2 °F 66.2 °F 100% 30.12 in 8.0 mi North 3.5 mph - 0.00 in   Partly Cloudy
3:15 AM 66.2 °F 66.2 °F 100% 30.12 in 7.0 mi Calm Calm - 0.00 in   Partly Cloudy
3:35 AM 68.0 °F 68.0 °F 100% 30.12 in 8.0 mi North 3.5 mph - 0.00 in   Mostly Cloudy
3:55 AM 68.0 °F 68.0 °F 100% 30.11 in 7.0 mi North 3.5 mph - 0.00 in   Scattered Clouds
4:15 AM 68.0 °F 68.0 °F 100% 30.11 in 8.0 mi North 4.6 mph - 0.00 in   Scattered Clouds
4:35 AM 68.0 °F 68.0 °F 100% 30.11 in 10.0 mi North 4.6 mph - 0.00 in   Partly Cloudy
4:55 AM 68.0 °F 68.0 °F 100% 30.11 in 10.0 mi North 4.6 mph - 0.00 in   Scattered Clouds
5:15 AM 68.0 °F 68.0 °F 100% 30.12 in 10.0 mi North 5.8 mph - 0.00 in   Partly Cloudy
5:35 AM 68.0 °F 68.0 °F 100% 30.12 in 10.0 mi North 5.8 mph - 0.00 in   Clear
5:55 AM 68.0 °F 66.2 °F 94% 30.12 in 10.0 mi North 5.8 mph - 0.00 in   Clear
6:15 AM 68.0 °F 68.0 °F 100% 30.13 in 10.0 mi NNE 5.8 mph - 0.00 in   Clear
6:35 AM 68.0 °F 66.2 °F 94% 30.14 in 10.0 mi North 5.8 mph - 0.00 in   Clear
6:50 AM 68.0 °F 64.4 °F 88% 30.15 in 10.0 mi North 5.8 mph - N/A   Clear
7:50 AM 68.0 °F 64.4 °F 88% 30.16 in 10.0 mi North 5.8 mph - N/A   Clear
8:50 AM 69.8 °F 64.4 °F 83% 30.18 in 10.0 mi North 5.8 mph - N/A   Clear
9:50 AM 71.6 °F 66.2 °F 83% 30.17 in 10.0 mi NNE 5.8 mph - N/A   Partly Cloudy
10:50 AM 73.4 °F 66.2 °F 78% 30.17 in 10.0 mi NNE 5.8 mph - N/A   Mostly Cloudy
11:50 AM 75.2 °F 66.2 °F 73% 30.16 in 10.0 mi NNE 8.1 mph - N/A   Mostly Cloudy
12:50 PM 77.0 °F 64.4 °F 65% 30.14 in 10.0 mi ENE 9.2 mph - N/A   Partly Cloudy
1:50 PM 77.0 °F 62.6 °F 61% 30.12 in 10.0 mi ENE 8.1 mph - N/A   Partly Cloudy
2:50 PM 77.0 °F 64.4 °F 65% 30.10 in 10.0 mi ENE 8.1 mph - N/A   Partly Cloudy
3:50 PM 77.0 °F 66.2 °F 69% 30.09 in 10.0 mi ENE 8.1 mph - N/A   Clear
4:05 PM 75.2 °F 66.2 °F 73% 30.09 in 10.0 mi ENE 10.4 mph - N/A   Clear
5:50 PM 75.2 °F 68.0 °F 78% 30.09 in 10.0 mi ENE 8.1 mph - N/A   Partly Cloudy
6:50 PM 73.4 °F 69.8 °F 88% 30.09 in 10.0 mi ENE 4.6 mph - N/A   Partly Cloudy
7:50 PM 73.4 °F 69.8 °F 88% 30.10 in 10.0 mi NE 5.8 mph - N/A   Scattered Clouds
9:15 PM 73.4 °F 69.8 °F 88% 30.11 in 10.0 mi NNE 5.8 mph - 0.00 in   Scattered Clouds
9:35 PM 71.6 °F 69.8 °F 94% 30.11 in 10.0 mi NNE 5.8 mph - 0.00 in   Partly Cloudy
9:55 PM 71.6 °F 71.6 °F 100% 30.11 in 10.0 mi NNE 5.8 mph - 0.00 in   Clear
10:15 PM 71.6 °F 71.6 °F 100% 30.11 in 10.0 mi NNE 4.6 mph - 0.00 in   Clear
10:35 PM 71.6 °F 71.6 °F 100% 30.11 in 10.0 mi NNE 5.8 mph - 0.00 in   Clear
10:55 PM 71.6 °F 71.6 °F 100% 30.11 in 10.0 mi NNE 5.8 mph - 0.00 in   Clear
11:15 PM 71.6 °F 71.6 °F 100% 30.10 in 10.0 mi NNE 6.9 mph - 0.00 in   Clear
11:35 PM 71.6 °F 71.6 °F 100% 30.10 in 10.0 mi NNE 8.1 mph - 0.00 in   Clear
11:55 PM 71.6 °F 71.6 °F 100% 30.09 in 10.0 mi NNE 6.9 mph - 0.00 in   Partly Cloudy